,,,PA_Meas_PMT16A,,PR_Meas_QMR101_102,,RH_Meas_QMH101,,SR_Meas_QMS101,,TA_Meas_QMH101,,GenWind,,GenWind,
date,time,status,PA,status,PR,status,RH,status,SR,status,TA,status,DirAvg,status,SpdAvg,
2010-10-13, 00:00:04,VALID,1006.23,VALID,0,VALID,68.843,VALID,853.478,VALID,29.7453,VALID,190,VALID,1.56133,
2010-10-13, 00:01:04,VALID,1006.22,VALID,0,VALID,68.9575,VALID,856.796,VALID,29.8233,VALID,193,VALID,1.8,
2010-10-13, 00:02:04,VALID,1006.26,VALID,0,VALID,68.6599,VALID,859.813,VALID,29.884,VALID,156,VALID,1.66094,
2010-10-13, 00:03:04,VALID,1006.2,VALID,0,VALID,66.8671,VALID,850.763,VALID,29.8818,VALID,196,VALID,1.79844,
2010-10-13, 00:04:04,VALID,1006.22,VALID,0,VALID,67.0579,VALID,857.098,VALID,29.7453,VALID,184,VALID,2.08984,
2010-10-13, 00:05:04,VALID,1006.19,VALID,0,VALID,68.3319,VALID,862.126,VALID,29.7258,VALID,188,VALID,2.12148,
2010-10-13, 00:06:04,VALID,1006.17,VALID,0,VALID,69.1329,VALID,852.07,VALID,29.6478,VALID,145,VALID,2.24844,
2010-10-13, 00:07:04,VALID,1006.17,VALID,0,VALID,68.7057,VALID,848.952,VALID,29.7843,VALID,196,VALID,1.82773,
2010-10-13, 00:08:04,VALID,1006.12,VALID,0,VALID,67.7292,VALID,851.567,VALID,29.9231,VALID,214,VALID,2.25547,
2010-10-13, 00:09:04,VALID,1006.12,VALID,0,VALID,68.4311,VALID,854.081,VALID,29.9793,VALID,183,VALID,2.42891,
2010-10-13, 00:10:04,VALID,1006.13,VALID,0,VALID,66.684,VALID,829.644,VALID,29.9036,VALID,170,VALID,3.53125,
2010-10-13, 00:11:04,VALID,1006.12,VALID,0,VALID,67.2028,VALID,116.05,VALID,29.6695,VALID,167,VALID,2.22227,
2010-10-13, 00:12:04,VALID,1006.08,VALID,0,VALID,67.569,VALID,829.141,VALID,29.6478,VALID,184,VALID,2.11797,
2010-10-13, 00:13:04,VALID,1006.13,VALID,0,VALID,66.8061,VALID,841.31,VALID,29.5698,VALID,135,VALID,2.82734,
2010-10-13, 00:14:04,VALID,1006.1,VALID,0,VALID,68.7972,VALID,833.566,VALID,29.5915,VALID,118,VALID,2.60938,
2010-10-13, 00:15:04,VALID,1006.06,VALID,0,VALID,66.6535,VALID,840.907,VALID,29.611,VALID,140,VALID,2.63633,
2010-10-13, 00:16:04,VALID,1006.05,VALID,0,VALID,68.7515,VALID,845.533,VALID,29.5698,VALID,165,VALID,2.20156,
2010-10-13, 00:17:04,VALID,1006.02,VALID,0,VALID,70.5595,VALID,777.653,VALID,29.9013,VALID,193,VALID,0.858203,
2010-10-13, 00:18:04,VALID,1006.01,VALID,0,VALID,67.5003,VALID,816.37,VALID,30.0986,VALID,136,VALID,2.48789,
2010-10-13, 00:19:04,VALID,1005.95,VALID,0,VALID,67.8284,VALID,812.549,VALID,30.1548,VALID,133,VALID,2.53477,
2010-10-13, 00:20:04,VALID,1005.96,VALID,0,VALID,68.164,VALID,821.398,VALID,30.3694,VALID,182,VALID,1.79805,
2010-10-13, 00:21:04,VALID,1005.97,VALID,0,VALID,66.3713,VALID,811.342,VALID,30.3304,VALID,181,VALID,2.21367,
2010-10-13, 00:22:04,VALID,1005.91,VALID,0,VALID,65.555,VALID,814.66,VALID,30.0378,VALID,147,VALID,2.52227,
2010-10-13, 00:23:04,VALID,1005.89,VALID,0,VALID,67.9581,VALID,821.8,VALID,30.0596,VALID,158,VALID,1.63789,
2010-10-13, 00:24:04,VALID,1005.87,VALID,0,VALID,66.1271,VALID,835.075,VALID,30.0573,VALID,116,VALID,1.47383,
2010-10-13, 00:25:04,VALID,1005.87,VALID,0,VALID,66.6306,VALID,848.248,VALID,30.2936,VALID,148,VALID,1.8082,
2010-10-13, 00:26:04,VALID,1005.83,VALID,0,VALID,68.6981,VALID,844.025,VALID,30.4497,VALID,155,VALID,1.25391,
2010-10-13, 00:27:04,VALID,1005.84,VALID,0,VALID,64.9675,VALID,837.689,VALID,30.5059,VALID,183,VALID,2.09023,
2010-10-13, 00:28:04,VALID,1005.82,VALID,0,VALID,66.4704,VALID,822.002,VALID,30.4692,VALID,165,VALID,1.72266,
2010-10-13, 00:29:04,VALID,1005.77,VALID,0,VALID,64.3038,VALID,819.89,VALID,30.3304,VALID,173,VALID,2.52227,
2010-10-13, 00:30:04,VALID,1005.84,VALID,0,VALID,64.2428,VALID,815.666,VALID,30.1571,VALID,172,VALID,2.66367,
2010-10-13, 00:31:04,VALID,1005.81,VALID,0,VALID,65.1583,VALID,819.387,VALID,30.1571,VALID,189,VALID,2.0168,
2010-10-13, 00:32:04,VALID,1005.83,VALID,0,VALID,66.028,VALID,871.579,VALID,30.0378,VALID,171,VALID,0.895703,
2010-10-13, 00:33:04,VALID,1005.81,VALID,0,VALID,65.616,VALID,893.703,VALID,30.0963,VALID,152,VALID,1.58203,
2010-10-13, 00:34:04,VALID,1005.79,VALID,0,VALID,64.6242,VALID,893.401,VALID,30.2913,VALID,170,VALID,2.71289,
2010-10-13, 00:35:04,VALID,1005.81,VALID,0,VALID,65.4711,VALID,851.366,VALID,30.2936,VALID,195,VALID,1.47969,
2010-10-13, 00:36:04,VALID,1005.84,VALID,0,VALID,67.0121,VALID,869.367,VALID,30.2546,VALID,176,VALID,1.73711,
2010-10-13, 00:37:04,VALID,1005.83,VALID,0,VALID,67.5537,VALID,850.059,VALID,30.2156,VALID,168,VALID,2.54648,
2010-10-13, 00:38:04,VALID,1005.83,VALID,0,VALID,66.3255,VALID,822.605,VALID,30.2523,VALID,204,VALID,1.8375,
2010-10-13, 00:39:04,VALID,1005.81,VALID,0,VALID,67.157,VALID,834.773,VALID,30.1135,VALID,184,VALID,2.51367,
2010-10-13, 00:40:04,VALID,1005.79,VALID,0,VALID,67.9123,VALID,111.323,VALID,30.0573,VALID,171,VALID,2.25469,
2010-10-13, 00:41:04,VALID,1005.82,VALID,0,VALID,66.295,VALID,742.356,VALID,30.2523,VALID,173,VALID,2.67617,
2010-10-13, 00:42:04,VALID,1005.78,VALID,0,VALID,65.1049,VALID,110.418,VALID,29.9988,VALID,176,VALID,2.92188,
2010-10-13, 00:43:04,VALID,1005.77,VALID,0,VALID,69.1863,VALID,859.612,VALID,29.9598,VALID,167,VALID,2.21289,
2010-10-13, 00:44:04,VALID,1005.76,VALID,0,VALID,66.8443,VALID,146.118,VALID,29.9793,VALID,147,VALID,1.85234,
2010-10-13, 00:45:04,VALID,1005.72,VALID,0,VALID,66.5238,VALID,871.076,VALID,30.016,VALID,140,VALID,2.11484,
2010-10-13, 00:46:04,VALID,1005.71,VALID,0,VALID,68.8964,VALID,865.746,VALID,30.0573,VALID,180,VALID,1.51289,
2010-10-13, 00:47:04,VALID,1005.72,VALID,0,VALID,66.3179,VALID,895.513,VALID,30.1743,VALID,187,VALID,2.06602,
2010-10-13, 00:48:04,VALID,1005.71,VALID,0,VALID,67.2486,VALID,903.96,VALID,29.9988,VALID,199,VALID,3.12852,
2010-10-13, 00:49:04,VALID,1005.66,VALID,0,VALID,69.8805,VALID,206.255,VALID,29.9013,VALID,164,VALID,2.63594,
2010-10-13, 00:50:04,VALID,1005.66,VALID,0,VALID,69.2016,VALID,910.296,VALID,29.9208,VALID,161,VALID,1.98594,
2010-10-13, 00:51:04,VALID,1005.66,VALID,0,VALID,69.9645,VALID,924.978,VALID,30.0768,VALID,161,VALID,2.12188,
2010-10-13, 00:52:04,VALID,1005.61,VALID,0,VALID,69.5754,VALID,932.922,VALID,30.4256,VALID,151,VALID,2.28906,
2010-10-13, 00:53:04,VALID,1005.61,VALID,0,VALID,65.883,VALID,109.01,VALID,30.4864,VALID,188,VALID,2.61914,
2010-10-13, 00:54:04,VALID,1005.61,VALID,0,VALID,66.9587,VALID,959.069,VALID,30.3694,VALID,200,VALID,2.10117,
2010-10-13, 00:55:04,VALID,1005.57,VALID,0,VALID,66.2873,VALID,959.069,VALID,30.289,VALID,186,VALID,2.76875,
2010-10-13, 00:56:04,VALID,1005.55,VALID,0,VALID,65.8906,VALID,964.198,VALID,30.2328,VALID,180,VALID,2.57461,
2010-10-13, 00:57:04,VALID,1005.54,VALID,0,VALID,67.8665,VALID,967.717,VALID,30.133,VALID,157,VALID,2.66328,
2010-10-13, 00:58:04,VALID,1005.55,VALID,0,VALID,69.8577,VALID,968.119,VALID,30.2133,VALID,194,VALID,1.97383,
2010-10-13, 00:59:04,VALID,1005.52,VALID,0,VALID,68.042,VALID,971.136,VALID,30.1938,VALID,187,VALID,2.82148,
2010-10-13, 01:00:04,VALID,1005.54,VALID,0,VALID,69.1939,VALID,971.337,VALID,30.016,VALID,159,VALID,2.31172,
2010-10-13, 01:01:04,VALID,1005.49,VALID,0,VALID,68.4387,VALID,971.74,VALID,30.1353,VALID,190,VALID,1.44805,
2010-10-13, 01:02:04,VALID,1005.49,VALID,0,VALID,70.8494,VALID,973.047,VALID,30.3304,VALID,160,VALID,1.41641,
2010-10-13, 01:03:04,VALID,1005.42,VALID,0,VALID,66.7146,VALID,970.231,VALID,30.3694,VALID,197,VALID,1.99766,
2010-10-13, 01:04:04,VALID,1005.41,VALID,0,VALID,67.7826,VALID,975.058,VALID,30.3109,VALID,210,VALID,2.04453,
2010-10-13, 01:05:04,VALID,1005.4,VALID,0,VALID,68.6675,VALID,976.366,VALID,30.25,VALID,124,VALID,2.87383,
2010-10-13, 01:06:04,VALID,1005.4,VALID,0,VALID,65.9822,VALID,958.767,VALID,30.2328,VALID,179,VALID,2.55586,
2010-10-13, 01:07:04,VALID,1005.36,VALID,0,VALID,67.1265,VALID,932.118,VALID,30.1353,VALID,206,VALID,2.40156,
2010-10-13, 01:08:04,VALID,1005.35,VALID,0,VALID,66.7222,VALID,962.186,VALID,30.1353,VALID,157,VALID,2.08125,
2010-10-13, 01:09:04,VALID,1005.34,VALID,0,VALID,67.0884,VALID,969.226,VALID,30.1158,VALID,152,VALID,2.05547,
2010-10-13, 01:10:04,VALID,1005.33,VALID,0,VALID,69.0337,VALID,969.829,VALID,30.1158,VALID,139,VALID,1.44727,
2010-10-13, 01:11:04,VALID,1005.31,VALID,0,VALID,67.7063,VALID,976.164,VALID,30.2133,VALID,149,VALID,2.24727,
2010-10-13, 01:12:04,VALID,1005.27,VALID,0,VALID,64.197,VALID,958.365,VALID,30.1915,VALID,150,VALID,2.40273,
2010-10-13, 01:13:04,VALID,1005.27,VALID,0,VALID,65.9059,VALID,962.488,VALID,30.3499,VALID,144,VALID,1.55742,
2010-10-13, 01:14:04,VALID,1005.26,VALID,0,VALID,68.3929,VALID,975.159,VALID,30.4474,VALID,162,VALID,2.49883,
2010-10-13, 01:15:04,VALID,1005.24,VALID,0,VALID,65.677,VALID,985.819,VALID,30.6011,VALID,195,VALID,2.07578,
2010-10-13, 01:16:04,VALID,1005.26,VALID,0,VALID,64.3115,VALID,635.357,VALID,30.5426,VALID,161,VALID,2.34258,
2010-10-13, 01:17:04,VALID,1005.25,VALID,0,VALID,65.8449,VALID,990.444,VALID,30.5426,VALID,175,VALID,1.48867,
2010-10-13, 01:18:04,VALID,1005.26,VALID,0,VALID,68.2403,VALID,991.551,VALID,30.7962,VALID,191,VALID,1.60391,
2010-10-13, 01:19:04,VALID,1005.28,VALID,0,VALID,64.1589,VALID,990.143,VALID,30.8352,VALID,183,VALID,2.27695,
2010-10-13, 01:20:04,VALID,1005.24,VALID,0,VALID,67.7902,VALID,985.215,VALID,30.9132,VALID,145,VALID,1.22305,
2010-10-13, 01:21:04,VALID,1005.27,VALID,0,VALID,60.1385,VALID,983.908,VALID,31.0326,VALID,175,VALID,2.99727,
2010-10-13, 01:22:04,VALID,1005.25,VALID,0,VALID,61.3362,VALID,972.142,VALID,30.9155,VALID,176,VALID,1.54258,
2010-10-13, 01:23:04,VALID,1005.23,VALID,0,VALID,60.5428,VALID,976.265,VALID,30.8765,VALID,173,VALID,1.5207,
2010-10-13, 01:24:04,VALID,1005.22,VALID,0,VALID,62.9077,VALID,986.623,VALID,30.7228,VALID,160,VALID,2.15234,
2010-10-13, 01:25:04,VALID,1005.18,VALID,0,VALID,66.6078,VALID,983.606,VALID,30.6838,VALID,177,VALID,2.28984,
2010-10-13, 01:26:04,VALID,1005.2,VALID,0,VALID,64.1818,VALID,992.154,VALID,30.6253,VALID,165,VALID,2.65391,
2010-10-13, 01:27:04,VALID,1005.18,VALID,0,VALID,65.3032,VALID,991.148,VALID,30.6838,VALID,212,VALID,1.93828,
2010-10-13, 01:28:04,VALID,1005.16,VALID,0,VALID,66.1577,VALID,994.266,VALID,30.6253,VALID,204,VALID,2.05781,
2010-10-13, 01:29:04,VALID,1005.13,VALID,0,VALID,66.0814,VALID,994.97,VALID,30.6424,VALID,196,VALID,1.80508,
2010-10-13, 01:30:04,VALID,1005.13,VALID,0,VALID,65.7686,VALID,990.947,VALID,30.7205,VALID,168,VALID,1.94883,
2010-10-13, 01:31:04,VALID,1005.06,VALID,0,VALID,63.9758,VALID,994.568,VALID,30.9351,VALID,181,VALID,2.72578,
2010-10-13, 01:32:04,VALID,1005,VALID,0,VALID,60.2758,VALID,996.076,VALID,30.9546,VALID,164,VALID,2.30938,
2010-10-13, 01:33:04,VALID,1005.01,VALID,0,VALID,61.6795,VALID,994.065,VALID,31.0154,VALID,126,VALID,1.53672,
2010-10-13, 01:34:04,VALID,1004.99,VALID,0,VALID,62.6789,VALID,994.165,VALID,31.035,VALID,171,VALID,1.07656,
2010-10-13, 01:35:04,VALID,1004.97,VALID,0,VALID,61.977,VALID,994.366,VALID,31.1715,VALID,182,VALID,2.56758,
2010-10-13, 01:36:04,VALID,1004.95,VALID,0,VALID,64.7845,VALID,991.651,VALID,31.0154,VALID,167,VALID,2.01992,
2010-10-13, 01:37:04,VALID,1004.92,VALID,0,VALID,65.6999,VALID,991.651,VALID,31.0326,VALID,191,VALID,1.80234,
2010-10-13, 01:38:04,VALID,1004.94,VALID,0,VALID,62.923,VALID,993.361,VALID,31.0716,VALID,184,VALID,1.99648,
2010-10-13, 01:39:04,VALID,1004.9,VALID,0,VALID,65.7228,VALID,994.97,VALID,31.1325,VALID,143,VALID,1.74297,
2010-10-13, 01:40:04,VALID,1004.91,VALID,0,VALID,60.0088,VALID,995.975,VALID,31.0521,VALID,154,VALID,2.89336,
2010-10-13, 01:41:04,VALID,1004.86,VALID,0,VALID,59.8409,VALID,995.875,VALID,30.779,VALID,141,VALID,2.16289,
2010-10-13, 01:42:04,VALID,1004.85,VALID,0,VALID,61.1912,VALID,998.49,VALID,30.7813,VALID,171,VALID,2.46484,
2010-10-13, 01:43:04,VALID,1004.82,VALID,0,VALID,61.0692,VALID,997.987,VALID,30.7595,VALID,123,VALID,2.12461,
2010-10-13, 01:44:04,VALID,1004.79,VALID,0,VALID,60.5428,VALID,996.981,VALID,30.7423,VALID,160,VALID,1.53906,
2010-10-13, 01:45:04,VALID,1004.79,VALID,0,VALID,61.9694,VALID,997.987,VALID,30.6058,VALID,165,VALID,2.55469,
2010-10-13, 01:46:04,VALID,1004.78,VALID,0,VALID,59.3527,VALID,999.093,VALID,30.6034,VALID,197,VALID,2.24844,
2010-10-13, 01:47:04,VALID,1004.77,VALID,0,VALID,60.3673,VALID,997.283,VALID,30.5644,VALID,155,VALID,2.32031,
2010-10-13, 01:48:04,VALID,1004.76,VALID,0,VALID,61.9465,VALID,996.478,VALID,30.5082,VALID,144,VALID,1.47227,
2010-10-13, 01:49:04,VALID,1004.76,VALID,0,VALID,58.8644,VALID,998.892,VALID,30.5839,VALID,167,VALID,2.61367,
2010-10-13, 01:50:04,VALID,1004.76,VALID,0,VALID,60.3826,VALID,999.294,VALID,30.6815,VALID,154,VALID,2.32773,
2010-10-13, 01:51:04,VALID,1004.73,VALID,0,VALID,60.8708,VALID,999.696,VALID,30.8008,VALID,210,VALID,1.70195,
2010-10-13, 01:52:04,VALID,1004.72,VALID,0,VALID,61.0844,VALID,1000.5,VALID,30.9351,VALID,195,VALID,2.4582,
2010-10-13, 01:53:04,VALID,1004.73,VALID,0,VALID,62.3051,VALID,999.897,VALID,31.2472,VALID,163,VALID,2.1625,
2010-10-13, 01:54:04,VALID,1004.71,VALID,0,VALID,61.8244,VALID,1001,VALID,31.1301,VALID,208,VALID,1.56719,
2010-10-13, 01:55:04,VALID,1004.69,VALID,0,VALID,59.757,VALID,1004.62,VALID,31.3447,VALID,159,VALID,1.9207,
2010-10-13, 01:56:04,VALID,1004.67,VALID,0,VALID,61.5422,VALID,1004.02,VALID,30.9936,VALID,154,VALID,2.54258,
2010-10-13, 01:57:04,VALID,1004.64,VALID,0,VALID,63.3045,VALID,1001.81,VALID,30.7205,VALID,153,VALID,2.53125,
2010-10-13, 01:58:04,VALID,1004.65,VALID,0,VALID,59.1772,VALID,1001,VALID,30.7205,VALID,189,VALID,2.78203,
2010-10-13, 01:59:04,VALID,1004.66,VALID,0,VALID,63.1214,VALID,1003.32,VALID,30.5862,VALID,199,VALID,2.17969,
2010-10-13, 02:00:04,VALID,1004.61,VALID,0,VALID,65.5016,VALID,1002.01,VALID,30.5472,VALID,200,VALID,1.80977,
2010-10-13, 02:01:04,VALID,1004.65,VALID,0,VALID,59.1391,VALID,1004.02,VALID,30.5254,VALID,129,VALID,3.62891,
2010-10-13, 02:02:04,VALID,1004.64,VALID,0,VALID,62.6331,VALID,999.897,VALID,30.3304,VALID,142,VALID,2.39063,
2010-10-13, 02:03:04,VALID,1004.63,VALID,0,VALID,65.1583,VALID,1004.72,VALID,30.4497,VALID,160,VALID,1.13984,
2010-10-13, 02:04:04,VALID,1004.6,VALID,0,VALID,60.6877,VALID,1005.63,VALID,30.5862,VALID,177,VALID,1.81328,
2010-10-13, 02:05:04,VALID,1004.59,VALID,0,VALID,61.8473,VALID,1007.44,VALID,30.6815,VALID,181,VALID,1.6668,
2010-10-13, 02:06:04,VALID,1004.58,VALID,0,VALID,52.2121,VALID,1007.04,VALID,30.8008,VALID,145,VALID,2.48359,
2010-10-13, 02:07:04,VALID,1004.57,VALID,0,VALID,60.5428,VALID,1005.93,VALID,30.7595,VALID,170,VALID,2.68477,
2010-10-13, 02:08:04,VALID,1004.55,VALID,0,VALID,65.4711,VALID,1007.04,VALID,30.7205,VALID,169,VALID,2.1957,
2010-10-13, 02:09:04,VALID,1004.53,VALID,0,VALID,61.3133,VALID,1008.65,VALID,30.8008,VALID,145,VALID,2.18711,
2010-10-13, 02:10:04,VALID,1004.52,VALID,0,VALID,61.1073,VALID,1008.04,VALID,30.8937,VALID,135,VALID,2.4707,
2010-10-13, 02:11:04,VALID,1004.5,VALID,0,VALID,59.7646,VALID,1008.65,VALID,30.8547,VALID,153,VALID,2.8582,
2010-10-13, 02:12:04,VALID,1004.52,VALID,0,VALID,60.4818,VALID,1008.75,VALID,30.8547,VALID,173,VALID,2.54766,
2010-10-13, 02:13:04,VALID,1004.47,VALID,0,VALID,58.7729,VALID,1009.15,VALID,30.8937,VALID,183,VALID,2.60664,
2010-10-13, 02:14:04,VALID,1004.47,VALID,0,VALID,62.4271,VALID,1008.65,VALID,30.8937,VALID,215,VALID,2.20625,
2010-10-13, 02:15:04,VALID,1004.43,VALID,0,VALID,61.4583,VALID,1006.43,VALID,31.0107,VALID,158,VALID,1.74688,
2010-10-13, 02:16:04,VALID,1004.44,VALID,0,VALID,60.703,VALID,1008.45,VALID,31.1083,VALID,187,VALID,2.73281,
2010-10-13, 02:17:04,VALID,1004.47,VALID,0,VALID,57.5752,VALID,1006.74,VALID,31.0888,VALID,162,VALID,2.12188,
2010-10-13, 02:18:04,VALID,1004.42,VALID,0,VALID,57.7964,VALID,1005.33,VALID,31.1278,VALID,134,VALID,2.19531,
2010-10-13, 02:19:04,VALID,1004.41,VALID,0,VALID,59.6578,VALID,1005.53,VALID,31.1692,VALID,162,VALID,2.08008,
2010-10-13, 02:20:04,VALID,1004.41,VALID,0,VALID,60.7259,VALID,1006.64,VALID,31.1863,VALID,134,VALID,2.39766,
2010-10-13, 02:21:04,VALID,1004.42,VALID,0,VALID,51.6475,VALID,1005.33,VALID,31.1301,VALID,169,VALID,2.46719,
2010-10-13, 02:22:04,VALID,1004.4,VALID,0,VALID,60.9929,VALID,1003.22,VALID,30.9327,VALID,144,VALID,3.0875,
2010-10-13, 02:23:04,VALID,1004.37,VALID,0,VALID,64.2123,VALID,1002.11,VALID,30.7376,VALID,128,VALID,2.79258,
2010-10-13, 02:24:04,VALID,1004.39,VALID,0,VALID,56.7818,VALID,1003.01,VALID,30.7376,VALID,157,VALID,2.43945,
2010-10-13, 02:25:04,VALID,1004.39,VALID,0,VALID,62.0075,VALID,1005.93,VALID,30.5036,VALID,144,VALID,1.97812,
2010-10-13, 02:26:04,VALID,1004.36,VALID,0,VALID,63.7317,VALID,1005.33,VALID,30.5621,VALID,148,VALID,2.25117,
2010-10-13, 02:27:04,VALID,1004.34,VALID,0,VALID,63.3121,VALID,1003.42,VALID,30.8157,VALID,174,VALID,1.88984,
2010-10-13, 02:28:04,VALID,1004.32,VALID,0,VALID,62.5263,VALID,999.696,VALID,30.7962,VALID,194,VALID,2.2625,
2010-10-13, 02:29:04,VALID,1004.32,VALID,0,VALID,64.3344,VALID,1003.42,VALID,30.8157,VALID,164,VALID,2.01602,
2010-10-13, 02:30:04,VALID,1004.29,VALID,0,VALID,53.4708,VALID,1005.73,VALID,30.8547,VALID,179,VALID,1.93164,
2010-10-13, 02:31:04,VALID,1004.3,VALID,0,VALID,52.7156,VALID,1004.22,VALID,30.9717,VALID,167,VALID,2.4707,
2010-10-13, 02:32:04,VALID,1004.26,VALID,0,VALID,54.9508,VALID,1005.33,VALID,31.0497,VALID,199,VALID,1.64102,
2010-10-13, 02:33:04,VALID,1004.27,VALID,0,VALID,60.2529,VALID,998.188,VALID,31.0669,VALID,189,VALID,2.25352,
2010-10-13, 02:34:04,VALID,1004.27,VALID,0,VALID,61.2294,VALID,1001,VALID,31.1887,VALID,154,VALID,2.44492,
2010-10-13, 02:35:04,VALID,1004.26,VALID,0,VALID,59.7799,VALID,1003.42,VALID,31.0669,VALID,198,VALID,2.17148,
2010-10-13, 02:36:04,VALID,1004.25,VALID,0,VALID,61.1607,VALID,1004.93,VALID,31.1863,VALID,138,VALID,2.15547,
2010-10-13, 02:37:04,VALID,1004.26,VALID,0,VALID,57.2471,VALID,1005.23,VALID,31.1668,VALID,191,VALID,1.45156,
2010-10-13, 02:38:04,VALID,1004.28,VALID,0,VALID,59.3374,VALID,1008.85,VALID,31.1473,VALID,179,VALID,2.72383,
2010-10-13, 02:39:04,VALID,1004.24,VALID,0,VALID,60.4284,VALID,1007.04,VALID,30.8547,VALID,129,VALID,1.75312,
2010-10-13, 02:40:04,VALID,1004.21,VALID,0,VALID,62.4195,VALID,1003.32,VALID,30.7767,VALID,181,VALID,1.63359,
2010-10-13, 02:41:04,VALID,1004.21,VALID,0,VALID,61.6948,VALID,1002.01,VALID,30.7985,VALID,162,VALID,1.04648,
2010-10-13, 02:42:04,VALID,1004.17,VALID,0,VALID,64.2352,VALID,1001.2,VALID,30.9936,VALID,186,VALID,1.41914,
2010-10-13, 02:43:04,VALID,1004.18,VALID,0,VALID,59.5968,VALID,999.696,VALID,31.0326,VALID,145,VALID,2.6418,
2010-10-13, 02:44:04,VALID,1004.17,VALID,0,VALID,61.8244,VALID,1000.2,VALID,30.9936,VALID,173,VALID,1.78359,
2010-10-13, 02:45:04,VALID,1004.15,VALID,0,VALID,61.1912,VALID,1000.2,VALID,31.1692,VALID,206,VALID,2.79023,
2010-10-13, 02:46:04,VALID,1004.19,VALID,0,VALID,61.6719,VALID,997.685,VALID,31.0521,VALID,188,VALID,2.12031,
2010-10-13, 02:47:04,VALID,1004.17,VALID,0,VALID,63.6249,VALID,998.791,VALID,30.8789,VALID,171,VALID,2.51797,
2010-10-13, 02:48:04,VALID,1004.13,VALID,0,VALID,62.9764,VALID,1000.4,VALID,30.8765,VALID,207,VALID,2.39922,
2010-10-13, 02:49:04,VALID,1004.17,VALID,0,VALID,64.6624,VALID,1000.6,VALID,30.7205,VALID,212,VALID,2.48398,
2010-10-13, 02:50:04,VALID,1004.18,VALID,0,VALID,62.0838,VALID,1000.4,VALID,30.6034,VALID,196,VALID,2.50625,
2010-10-13, 02:51:04,VALID,1004.15,VALID,0,VALID,65.7762,VALID,997.786,VALID,30.662,VALID,186,VALID,1.53008,
2010-10-13, 02:52:04,VALID,1004.11,VALID,0,VALID,64.3649,VALID,997.082,VALID,30.5644,VALID,154,VALID,3.22461,
2010-10-13, 02:53:04,VALID,1004.13,VALID,0,VALID,64.6929,VALID,996.277,VALID,30.5449,VALID,217,VALID,1.34336,
2010-10-13, 02:54:04,VALID,1004.12,VALID,0,VALID,62.244,VALID,996.579,VALID,30.6229,VALID,192,VALID,2.13633,
2010-10-13, 02:55:04,VALID,1004.12,VALID,0,VALID,63.4723,VALID,991.249,VALID,30.5839,VALID,152,VALID,2.35313,
2010-10-13, 02:56:04,VALID,1004.1,VALID,0,VALID,64.9904,VALID,993.16,VALID,30.5862,VALID,208,VALID,1.63164,
2010-10-13, 02:57:04,VALID,1004.05,VALID,0,VALID,65.5702,VALID,989.238,VALID,30.701,VALID,145,VALID,2.45742,
2010-10-13, 02:58:04,VALID,1004.06,VALID,0,VALID,64.2199,VALID,989.238,VALID,30.662,VALID,184,VALID,3.07344,
2010-10-13, 02:59:04,VALID,1004.04,VALID,0,VALID,62.9535,VALID,991.45,VALID,30.7205,VALID,220,VALID,2.48633,
2010-10-13, 03:00:04,VALID,1004.08,VALID,0,VALID,63.5181,VALID,985.718,VALID,30.7595,VALID,184,VALID,1.9918,
2010-10-13, 03:01:04,VALID,1004.03,VALID,0,VALID,61.382,VALID,984.712,VALID,30.662,VALID,176,VALID,3.08984,
2010-10-13, 03:02:04,VALID,1004.05,VALID,0,VALID,66.7222,VALID,982.299,VALID,30.5644,VALID,155,VALID,3.38125,
2010-10-13, 03:03:04,VALID,1004.02,VALID,0,VALID,66.4475,VALID,984.511,VALID,30.5082,VALID,177,VALID,2.62617,
2010-10-13, 03:04:04,VALID,1003.98,VALID,0,VALID,66.8061,VALID,979.684,VALID,30.5254,VALID,133,VALID,2.26914,
2010-10-13, 03:05:04,VALID,1003.96,VALID,0,VALID,64.8073,VALID,982.299,VALID,30.7595,VALID,125,VALID,2.05938,
2010-10-13, 03:06:04,VALID,1003.93,VALID,0,VALID,66.5696,VALID,984.411,VALID,30.8765,VALID,209,VALID,1.93164,
2010-10-13, 03:07:04,VALID,1003.9,VALID,0,VALID,65.3337,VALID,984.008,VALID,30.818,VALID,188,VALID,2.275,
2010-10-13, 03:08:04,VALID,1003.9,VALID,0,VALID,67.0273,VALID,981.997,VALID,30.779,VALID,156,VALID,1.75312,
2010-10-13, 03:09:04,VALID,1003.91,VALID,0,VALID,67.241,VALID,983.606,VALID,30.8984,VALID,200,VALID,1.30977,
2010-10-13, 03:10:04,VALID,1003.87,VALID,0,VALID,61.5727,VALID,981.293,VALID,30.9936,VALID,178,VALID,2.14375,
2010-10-13, 03:11:04,VALID,1003.87,VALID,0,VALID,63.5791,VALID,979.383,VALID,30.8789,VALID,208,VALID,2.30703,
2010-10-13, 03:12:04,VALID,1003.86,VALID,0,VALID,67.7673,VALID,973.852,VALID,30.857,VALID,185,VALID,0.971484,
2010-10-13, 03:13:04,VALID,1003.86,VALID,0,VALID,64.3496,VALID,975.461,VALID,30.9374,VALID,189,VALID,1.14609,
2010-10-13, 03:14:04,VALID,1003.82,VALID,0,VALID,62.0228,VALID,977.572,VALID,30.9741,VALID,132,VALID,2.62617,
2010-10-13, 03:15:04,VALID,1003.83,VALID,0,VALID,64.6624,VALID,975.159,VALID,31.0521,VALID,167,VALID,1.94492,
2010-10-13, 03:16:04,VALID,1003.81,VALID,0,VALID,65.3795,VALID,976.366,VALID,30.9351,VALID,155,VALID,1.56406,
2010-10-13, 03:17:04,VALID,1003.81,VALID,0,VALID,62.6102,VALID,975.058,VALID,31.0521,VALID,194,VALID,2.21523,
2010-10-13, 03:18:04,VALID,1003.74,VALID,0,VALID,64.1436,VALID,969.427,VALID,30.896,VALID,216,VALID,2.23633,
2010-10-13, 03:19:04,VALID,1003.74,VALID,0,VALID,65.288,VALID,968.522,VALID,30.9155,VALID,172,VALID,0.979297,
2010-10-13, 03:20:04,VALID,1003.74,VALID,0,VALID,65.0057,VALID,970.634,VALID,31.1325,VALID,164,VALID,2.19023,
2010-10-13, 03:21:04,VALID,1003.73,VALID,0,VALID,61.1684,VALID,963.393,VALID,31.0154,VALID,185,VALID,2.60313,
2010-10-13, 03:22:04,VALID,1003.69,VALID,0,VALID,62.8467,VALID,966.41,VALID,30.857,VALID,193,VALID,2.21914,
2010-10-13, 03:23:04,VALID,1003.72,VALID,0,VALID,63.4341,VALID,963.695,VALID,30.9374,VALID,172,VALID,1.7625,
2010-10-13, 03:24:04,VALID,1003.69,VALID,0,VALID,56.591,VALID,962.488,VALID,30.8984,VALID,148,VALID,2.41641,
2010-10-13, 03:25:04,VALID,1003.66,VALID,0,VALID,63.0832,VALID,963.292,VALID,30.9374,VALID,193,VALID,2.01953,
2010-10-13, 03:26:04,VALID,1003.69,VALID,0,VALID,63.2587,VALID,960.074,VALID,31.1692,VALID,171,VALID,3.05195,
2010-10-13, 03:27:04,VALID,1003.68,VALID,0,VALID,64.4488,VALID,963.091,VALID,31.1106,VALID,184,VALID,1.6043,
2010-10-13, 03:28:04,VALID,1003.67,VALID,0,VALID,64.5785,VALID,955.247,VALID,30.9741,VALID,188,VALID,1.43281,
2010-10-13, 03:29:04,VALID,1003.66,VALID,0,VALID,63.5409,VALID,957.46,VALID,31.035,VALID,160,VALID,2.22813,
2010-10-13, 03:30:04,VALID,1003.64,VALID,0,VALID,65.0057,VALID,961.583,VALID,30.9179,VALID,147,VALID,2.69688,
2010-10-13, 03:31:04,VALID,1003.66,VALID,0,VALID,57.4989,VALID,958.063,VALID,30.896,VALID,153,VALID,2.4168,
2010-10-13, 03:32:04,VALID,1003.63,VALID,0,VALID,61.9465,VALID,954.745,VALID,30.7985,VALID,184,VALID,3.17695,
2010-10-13, 03:33:04,VALID,1003.66,VALID,0,VALID,63.0374,VALID,956.052,VALID,30.6034,VALID,169,VALID,2.67344,
2010-10-13, 03:34:04,VALID,1003.67,VALID,0,VALID,63.3731,VALID,951.929,VALID,30.5839,VALID,209,VALID,2.79375,